Location: Pedholt
(56.0260°N, 10.2097°E)
Time: 07:35:31
(UTC+00:00)

SR - Pass Details

Date: 05 August 2021
Orbit: 581 x 874 km, 66.7° (Epoch: 24 September)

Event Time Altitude Azimuth Distance (km) Brightness Sun altitude
Rises 05:33:32 0° 225° (SW) 3,411 ? 15.1°
Reaches altitude 10° 05:36:04 10° 226° (SW) 2,450 ? 15.5°
Maximum altitude 05:41:45 84° 314° (NW) 810 ? 16.2°
Drops below altitude 10° 05:47:02 10° 44° (NE) 2,285 ? 17.0°
Sets 05:49:20 0° 45° (NE) 3,165 ? 17.3°
